STARLINK-31974, 59885

Orbit data source: Space-Track

STARLINK-31974, 59885 is a payload satellite owned by SpaceX/Seattle (US) in LEO that was launched on Tue, 28 May 2024 UTC via an FALCON 9 launch vehicle from the Air Force Eastern Test Range (AFETR). Payload-class satellites include a variety of spacecraft equipped with specific instruments for various scientific and technological missions. These include communications satellites like Starlink; space stations such as the ISS; scientific satellites like the Hubble; Earth observation satellites from companies like Planet Labs, Umbra, and HawkEye 360; GPS; miniature CubeSats for education and research; and military/defense satellites.

Loading next visibility...
Identifier
59885, 2024-100A
Orbit
LEO
Country
Flag of USUS
Related business
Manufacturer
SpaceX/Seattle
Mission
Operational Commercial Communications
Bus & Motor
STARLINK V2M, Unknown motor
Mass
730 kg wet, ~700 kg dry
Launch date (UTC)
2024-05-28 (2 years ago)
Launch vehicle
FALCON 9
Launch site
Air Force Eastern Test Range (AFETR)
Object type
Payload
Rocket body
Debris
Shape & HBR
Box + 2 Pan, 17.7 m
Radar Cross Section
33.884 m², Large (>1 m²)

Expand to show TLE details & history
Last TLE update: 11 hours ago

TLE from 11 hours ago
0 STARLINK-31974
1 59885U 24100A   26036.17131090 -.00000717  00000-0 -16540-4 0  9998
2 59885  43.0019 309.0460 0001030 258.3656 101.7081 15.27589087 96088
Epoch: 2026-02-05T04:06Z
TLE epoch observation values (Epoch: 2026-02-05T04:06:41.261Z)
Latitude
0.00003°
Longitude
112.04675°
Altitude
482.941 km
Speed
7.626 km/s
True Right ascension
20h 36m 11s
True Declination
0° 00' 00"
Sunlit
Object was in daylight at epoch
Visualization orbit readout
Latitude
Unknown
Longitude
Unknown
Altitude
Unknown
Speed
Unknown
Apparent Right ascension
Unknown
Apparent Declination
Unknown
Sunlit
N/A
Visualization observer readout
Local Sidereal Time
17:14:37
Azimuth
Unknown
Elevation
Unknown
Doppler factor
Unknown
Orbital elements
Apogee altitude
485.674 km
Perigee altitude
484.26 km
Semi-major axis
6,863.104 km
Eccentricity
0.0001
Inclination
43.0019°
RAAN
309.046°
Arg. of periapsis
258.3656°
True anomaly
101.71966°
Mean anomaly
101.7081°
Eccentric anomaly
101.71388°
Mean motion
3.81735 °/min
Orbital period
94.31 mins
BSTAR
-0.00001654
Loading maneuver chart data...
Computing Atmospheric mass density...
Loading historical data...
Loading historical data...
Loading historical data...
Loading historical data...
Loading historical data...
Loading historical data...
Loading historical data...

Documentation

Showing up to 5 results
|